Location: Krakow
(50.0830°N, 19.9170°E)
Time: 13:28:18
(UTC+02:00)

Tiros 1 - Pass Details

Date: 09 February 2023
Orbit: 627 x 662 km, 48.4° (Epoch: 26 March)

Event Time Altitude Azimuth Distance (km) Brightness Sun altitude
Rises 23:27:26 0° 253° (WSW) 2,906 - -54.0°
Reaches altitude 10° 23:29:45 10° 251° (WSW) 2,000 - -54.1°
Maximum altitude 23:34:18 66° 170° (S) 688 - -54.2°
Drops below altitude 10° 23:38:54 10° 88° (E) 2,014 - -54.3°
Sets 23:41:14 0° 86° (E) 2,928 - -54.3°
